Regional Weather Roundup
Issued by NWS Cleveland, OH

Home | Current Version | Previous Version | Graphics & Text | Print | Product List | Glossary On
Versions: 1 2 3 4 5 6 7 8 9 10 11 12 13 14 15 16 17 18 19 20 21 22 23 24 25 26 27 28 29 30 31 32 33 34 35 36 37 38 39 40 41 42 43 44 45 46 47 48 49 50
000
ASUS41 KCLE 201202
RWRCLE
OHIO REGIONAL WEATHER ROUNDUP
NATIONAL WEATHER SERVICE CLEVELAND, OH
800 AM EDT WED SEP 20 2017

NOTE: "FAIR" INDICATES FEW OR NO CLOUDS BELOW 12,000 FEET WITH NO
SIGNIFICANT WEATHER AND/OR OBSTRUCTIONS TO VISIBILITY.

OHZ001>008-015>018-024>027-034-035-043-044-201300-
   NORTHWEST OHIO

CITY           SKY/WX    TMP DP  RH WIND       PRES   REMARKS
DEFIANCE       FOG       64  63  96 CALM      30.01R VSB 1/4
FINDLAY        PTCLDY    66  62  87 CALM      30.02R FOG
TOLEDO EXPRESS PTCLDY    64  50  60 W5        30.01R FOG
TOLEDO EXEC    CLOUDY    66  64  93 CALM      30.03R FOG
LIMA           CLOUDY    65  65 100 S5        30.03R FOG
$$

OHZ009>014-019>023-028>033-038-089-201300-
   NORTHEAST OHIO

CITY           SKY/WX    TMP DP  RH WIND       PRES   REMARKS
CLE-HOPKINS    CLOUDY    70  65  84 CALM      30.04R
CLE-LAKEFRONT  CLOUDY    70  64  81 CALM      30.01R
CUY CO. ARPT   MOCLDY    68  66  94 SE5       30.03R
LORAIN-ELYRIA  CLOUDY    63  59  87 CALM      30.03R FOG
ASHTABULA      CLOUDY    64  64 100 CALM      30.04R
AKRON-CANTON   MOCLDY    67  63  87 CALM      30.04R
WOOSTER        CLOUDY    63  62  97 CALM      30.05R FOG
MANSFIELD      CLOUDY    66  65  96 SW5       30.05R
YOUNGSTOWN     CLOUDY    65  63  93 SE6       30.04R
$$

OHZ042-051>053-060>062-070>072-077>081-201300-
  SOUTHWEST OHIO

CITY           SKY/WX    TMP DP  RH WIND       PRES   REMARKS
CINC-COVINGTON PTCLDY    65  65 100 CALM      30.03R FOG
CINC-LUNKEN    FOG       63  63 100 CALM      30.04R VSB 1/4
HAMILTON       FOG       61  61 100 CALM      30.04R VSB 1/4
DAYTON         FOG       65  64  97 S3        30.04R VSB 1
WRIGHT-PAT AFB NOT AVBL
DAYTON GENERAL FOG       64  64 100 CALM      30.03R VSB 1/4
WILMINGTON     FOG       63  61  93 CALM      30.04R VSB<1/4
$$

OHZ036-037-039>041-045>050-054>059-063>069-073>076-082>088-201300-
  CENTRAL AND SOUTHEAST OHIO

CITY           SKY/WX    TMP DP  RH WIND       PRES   REMARKS
COLUMBUS       CLOUDY    69  67  93 CALM      30.02R
OSU AIRPORT    MOCLDY    66  66 100 CALM      30.03R FOG
BOLTON FIELD   CLEAR     63  63 100 W6        30.04R
RICKENBACK AFB PTCLDY    64  64 100 CALM      30.03R
NEWARK         CLOUDY    66  65  96 CALM      30.03R FOG
MARION         CLOUDY    65  63  93 S3        30.04R FOG
LANCASTER      CLOUDY    65  65 100 CALM      30.04R FOG
ZANESVILLE     CLOUDY    65  63  93 CALM      30.03R
NEW PHILLY     NOT AVBL
$$




USA.gov is the U.S. government's official web portal to all federal, state and local government web resources and services.